Data supplied by UK-AIR on 21/3/2019
All Data GMT hour ending 
Status: R =Ratified P=Provisional,P*=As supplied
,,Leominster,,,,,,,,,,,,,,,,,,,,,,,
Date,time,"Nitric oxide",status,unit,"Nitrogen dioxide",status,unit,"Nitrogen oxides as nitrogen dioxide",status,unit,"Ozone",status,unit
 
01-01-2018,01:00,0.21637,R,ugm-3,0.25181,R,ugm-3,0.58357,R,ugm-3,65.72505,R,ugm-3
01-01-2018,02:00,0.64911,R,ugm-3,0.30153,R,ugm-3,1.29682,R,ugm-3,67.55445,R,ugm-3
01-01-2018,03:00,0.22719,R,ugm-3,0.28385,R,ugm-3,0.63220,R,ugm-3,69.79961,R,ugm-3
01-01-2018,04:00,0.35701,R,ugm-3,0.03616,R,ugm-3,0.58357,R,ugm-3,69.35058,R,ugm-3
01-01-2018,05:00,0.38946,R,ugm-3,-0.06223,R,ugm-3,0.53494,R,ugm-3,74.14026,R,ugm-3
01-01-2018,06:00,0.29210,R,ugm-3,-0.10746,R,ugm-3,0.34041,R,ugm-3,78.73037,R,ugm-3
01-01-2018,07:00,0.48683,R,ugm-3,-0.11426,R,ugm-3,0.63220,R,ugm-3,79.02972,R,ugm-3
01-01-2018,08:00,0.42192,R,ugm-3,0.13116,R,ugm-3,0.77809,R,ugm-3,74.19015,R,ugm-3
01-01-2018,09:00,0.32455,R,ugm-3,0.91265,R,ugm-3,1.41029,R,ugm-3,70.89724,R,ugm-3
01-01-2018,10:00,0.58420,R,ugm-3,3.67552,R,ugm-3,4.57127,R,ugm-3,66.15746,R,ugm-3
01-01-2018,11:00,0.45438,R,ugm-3,1.34579,R,ugm-3,2.04248,R,ugm-3,64.96004,R,ugm-3
01-01-2018,12:00,0.68156,R,ugm-3,1.82416,R,ugm-3,2.86920,R,ugm-3,58.17466,R,ugm-3
01-01-2018,13:00,0.64911,R,ugm-3,1.14446,R,ugm-3,2.13975,R,ugm-3,63.96219,R,ugm-3
01-01-2018,14:00,0.48683,R,ugm-3,1.19876,R,ugm-3,1.94522,R,ugm-3,64.01208,R,ugm-3
01-01-2018,15:00,0.35701,R,ugm-3,1.49508,R,ugm-3,2.04248,R,ugm-3,69.79961,R,ugm-3
01-01-2018,16:00,0.42192,R,ugm-3,1.15240,R,ugm-3,1.79933,R,ugm-3,72.29423,R,ugm-3
01-01-2018,17:00,0.42192,R,ugm-3,1.24966,R,ugm-3,1.89659,R,ugm-3,73.79101,R,ugm-3
01-01-2018,18:00,0.45438,R,ugm-3,1.63757,R,ugm-3,2.33427,R,ugm-3,75.08821,R,ugm-3
01-01-2018,19:00,0.51929,R,ugm-3,1.73256,R,ugm-3,2.52879,R,ugm-3,73.79101,R,ugm-3
01-01-2018,20:00,0.48683,R,ugm-3,1.58781,R,ugm-3,2.33427,R,ugm-3,73.64133,R,ugm-3
01-01-2018,21:00,0.55174,R,ugm-3,1.87732,R,ugm-3,2.72331,R,ugm-3,73.59144,R,ugm-3
01-01-2018,22:00,0.51929,R,ugm-3,1.63530,R,ugm-3,2.43153,R,ugm-3,71.99488,R,ugm-3
01-01-2018,23:00,0.32455,R,ugm-3,1.30169,R,ugm-3,1.79933,R,ugm-3,68.40262,R,ugm-3
01-01-2018,24:00,0.29210,R,ugm-3,0.67063,R,ugm-3,1.11850,R,ugm-3,67.70412,R,ugm-3
02-01-2018,01:00,0.43404,R,ugm-3,0.50493,R,ugm-3,1.17046,R,ugm-3,65.79158,R,ugm-3
02-01-2018,02:00,0.26043,R,ugm-3,0.51104,R,ugm-3,0.91036,R,ugm-3,63.51315,R,ugm-3
02-01-2018,03:00,0.42319,R,ugm-3,0.71665,R,ugm-3,1.36554,R,ugm-3,61.51745,R,ugm-3
02-01-2018,04:00,0.26043,R,ugm-3,0.62484,R,ugm-3,1.02415,R,ugm-3,57.62584,R,ugm-3
02-01-2018,05:00,0.35809,R,ugm-3,0.28002,R,ugm-3,0.82908,R,ugm-3,60.07057,R,ugm-3
02-01-2018,06:00,0.45575,R,ugm-3,3.98304,R,ugm-3,4.68184,R,ugm-3,52.08777,R,ugm-3
02-01-2018,07:00,0.58596,R,ugm-3,9.83075,R,ugm-3,10.72921,R,ugm-3,40.71228,R,ugm-3
02-01-2018,08:00,0.91149,R,ugm-3,13.57452,R,ugm-3,14.97213,R,ugm-3,41.41078,R,ugm-3
02-01-2018,09:00,1.92065,R,ugm-3,23.29285,R,ugm-3,26.23780,R,ugm-3,34.37593,R,ugm-3
02-01-2018,10:00,1.66022,R,ugm-3,15.40141,R,ugm-3,17.94704,R,ugm-3,39.16561,R,ugm-3
02-01-2018,11:00,1.20447,R,ugm-3,12.54006,R,ugm-3,14.38690,R,ugm-3,41.06153,R,ugm-3
02-01-2018,12:00,0.97660,R,ugm-3,6.93963,R,ugm-3,8.43706,R,ugm-3,53.43487,R,ugm-3
02-01-2018,13:00,0.81383,R,ugm-3,6.36013,R,ugm-3,7.60799,R,ugm-3,54.93164,R,ugm-3
02-01-2018,14:00,0.68362,R,ugm-3,3.09718,R,ugm-3,4.14538,R,ugm-3,65.40907,R,ugm-3
02-01-2018,15:00,0.32553,R,ugm-3,1.45162,R,ugm-3,1.95077,R,ugm-3,72.54370,R,ugm-3
02-01-2018,16:00,0.39064,R,ugm-3,1.10795,R,ugm-3,1.70692,R,ugm-3,72.14456,R,ugm-3
02-01-2018,17:00,0.48830,R,ugm-3,1.78728,R,ugm-3,2.53600,R,ugm-3,69.94929,R,ugm-3
02-01-2018,18:00,0.42319,R,ugm-3,3.59403,R,ugm-3,4.24292,R,ugm-3,67.60434,R,ugm-3
02-01-2018,19:00,0.42319,R,ugm-3,3.49649,R,ugm-3,4.14538,R,ugm-3,69.05122,R,ugm-3
02-01-2018,20:00,0.39064,R,ugm-3,1.44933,R,ugm-3,2.04831,R,ugm-3,73.84090,R,ugm-3
02-01-2018,21:00,0.32553,R,ugm-3,2.57331,R,ugm-3,3.07246,R,ugm-3,65.20950,R,ugm-3
02-01-2018,22:00,0.35809,R,ugm-3,1.15786,R,ugm-3,1.70692,R,ugm-3,63.51315,R,ugm-3
02-01-2018,23:00,0.42319,R,ugm-3,0.13142,R,ugm-3,0.78031,R,ugm-3,74.24004,R,ugm-3
02-01-2018,24:00,0.42319,R,ugm-3,-0.01489,R,ugm-3,0.63400,R,ugm-3,75.63703,R,ugm-3
03-01-2018,01:00,0.39182,R,ugm-3,-0.27472,R,ugm-3,0.32605,R,ugm-3,76.23574,R,ugm-3
03-01-2018,02:00,0.39182,R,ugm-3,0.05133,R,ugm-3,0.65210,R,ugm-3,80.07746,R,ugm-3
03-01-2018,03:00,0.29386,R,ugm-3,0.03850,R,ugm-3,0.48908,R,ugm-3,82.02327,R,ugm-3
03-01-2018,04:00,0.29386,R,ugm-3,-0.20604,R,ugm-3,0.24454,R,ugm-3,81.92349,R,ugm-3
03-01-2018,05:00,0.32651,R,ugm-3,-0.25611,R,ugm-3,0.24454,R,ugm-3,81.07531,R,ugm-3
03-01-2018,06:00,0.45712,R,ugm-3,-0.16292,R,ugm-3,0.53798,R,ugm-3,80.92564,R,ugm-3
03-01-2018,07:00,0.32651,R,ugm-3,0.33078,R,ugm-3,0.83143,R,ugm-3,78.08176,R,ugm-3
03-01-2018,08:00,0.42447,R,ugm-3,1.06093,R,ugm-3,1.71177,R,ugm-3,77.63273,R,ugm-3
03-01-2018,09:00,0.58772,R,ugm-3,1.44641,R,ugm-3,2.34757,R,ugm-3,77.38327,R,ugm-3
03-01-2018,10:00,0.55507,R,ugm-3,0.95849,R,ugm-3,1.80959,R,ugm-3,75.68692,R,ugm-3
03-01-2018,11:00,0.55507,R,ugm-3,0.81176,R,ugm-3,1.66286,R,ugm-3,75.53725,R,ugm-3
03-01-2018,12:00,,,,,,,,,,67.20520,R,ugm-3
03-01-2018,13:00,0.32651,R,ugm-3,1.16222,R,ugm-3,1.66286,R,ugm-3,71.09681,R,ugm-3
03-01-2018,14:00,0.42447,R,ugm-3,0.91421,R,ugm-3,1.56505,R,ugm-3,70.59789,R,ugm-3
03-01-2018,15:00,0.39182,R,ugm-3,1.15990,R,ugm-3,1.76068,R,ugm-3,71.14671,R,ugm-3
03-01-2018,16:00,0.48977,R,ugm-3,1.69442,R,ugm-3,2.44539,R,ugm-3,72.34413,R,ugm-3
03-01-2018,17:00,0.45712,R,ugm-3,1.79339,R,ugm-3,2.49429,R,ugm-3,70.94714,R,ugm-3
03-01-2018,18:00,0.45712,R,ugm-3,1.25540,R,ugm-3,1.95631,R,ugm-3,72.44391,R,ugm-3
03-01-2018,19:00,0.29386,R,ugm-3,0.86993,R,ugm-3,1.32051,R,ugm-3,72.24434,R,ugm-3
03-01-2018,20:00,0.35917,R,ugm-3,0.52526,R,ugm-3,1.07597,R,ugm-3,72.94284,R,ugm-3
03-01-2018,21:00,0.35917,R,ugm-3,0.62307,R,ugm-3,1.17379,R,ugm-3,72.49380,R,ugm-3
03-01-2018,22:00,0.29386,R,ugm-3,0.62539,R,ugm-3,1.07597,R,ugm-3,71.74542,R,ugm-3
03-01-2018,23:00,0.26121,R,ugm-3,0.43091,R,ugm-3,0.83143,R,ugm-3,67.95359,R,ugm-3
03-01-2018,24:00,0.13061,R,ugm-3,0.23991,R,ugm-3,0.44017,R,ugm-3,71.79531,R,ugm-3
04-01-2018,01:00,0.34882,R,ugm-3,-0.40423,R,ugm-3,0.13062,R,ugm-3,76.63488,R,ugm-3
04-01-2018,02:00,0.30522,R,ugm-3,-0.07614,R,ugm-3,0.39186,R,ugm-3,68.90154,R,ugm-3
04-01-2018,03:00,0.32702,R,ugm-3,-0.25651,R,ugm-3,0.24491,R,ugm-3,70.54800,R,ugm-3
04-01-2018,04:00,0.26162,R,ugm-3,-0.15623,R,ugm-3,0.24491,R,ugm-3,69.69982,R,ugm-3
04-01-2018,05:00,0.35972,R,ugm-3,2.43635,R,ugm-3,2.98791,R,ugm-3,56.67788,R,ugm-3
04-01-2018,06:00,0.32702,R,ugm-3,2.92733,R,ugm-3,3.42875,R,ugm-3,53.68433,R,ugm-3
04-01-2018,07:00,0.55593,R,ugm-3,6.88676,R,ugm-3,7.73918,R,ugm-3,47.34798,R,ugm-3
04-01-2018,08:00,1.14457,R,ugm-3,9.95176,R,ugm-3,11.70674,R,ugm-3,46.40003,R,ugm-3
04-01-2018,09:00,1.89671,R,ugm-3,17.17444,R,ugm-3,20.08269,R,ugm-3,39.41508,R,ugm-3
04-01-2018,10:00,1.40618,R,ugm-3,10.97110,R,ugm-3,13.12722,R,ugm-3,47.49766,R,ugm-3
04-01-2018,11:00,0.26162,R,ugm-3,0.48054,R,ugm-3,0.88168,R,ugm-3,71.74542,R,ugm-3
04-01-2018,12:00,0.52323,R,ugm-3,0.03042,R,ugm-3,0.83270,R,ugm-3,75.48735,R,ugm-3
04-01-2018,13:00,0.39242,R,ugm-3,0.13303,R,ugm-3,0.73473,R,ugm-3,73.79101,R,ugm-3
04-01-2018,14:00,0.55593,R,ugm-3,0.56806,R,ugm-3,1.42048,R,ugm-3,70.89724,R,ugm-3
04-01-2018,15:00,0.58864,R,ugm-3,1.00774,R,ugm-3,1.91030,R,ugm-3,77.93209,R,ugm-3
04-01-2018,16:00,0.62134,R,ugm-3,1.39844,R,ugm-3,2.35114,R,ugm-3,79.72822,R,ugm-3
04-01-2018,17:00,0.55593,R,ugm-3,1.30280,R,ugm-3,2.15522,R,ugm-3,79.52865,R,ugm-3
04-01-2018,18:00,0.58864,R,ugm-3,1.98739,R,ugm-3,2.88995,R,ugm-3,76.68477,R,ugm-3
04-01-2018,19:00,0.39242,R,ugm-3,1.21063,R,ugm-3,1.81234,R,ugm-3,73.24219,R,ugm-3
04-01-2018,20:00,0.42513,R,ugm-3,0.81762,R,ugm-3,1.46947,R,ugm-3,68.50240,R,ugm-3
04-01-2018,21:00,0.29432,R,ugm-3,0.57735,R,ugm-3,1.02863,R,ugm-3,71.04692,R,ugm-3
04-01-2018,22:00,0.42513,R,ugm-3,0.47474,R,ugm-3,1.12659,R,ugm-3,78.38112,R,ugm-3
04-01-2018,23:00,0.42513,R,ugm-3,1.20947,R,ugm-3,1.86132,R,ugm-3,74.58929,R,ugm-3
04-01-2018,24:00,0.29432,R,ugm-3,0.03854,R,ugm-3,0.48982,R,ugm-3,72.54370,R,ugm-3
05-01-2018,01:00,0.30569,R,ugm-3,-0.20708,R,ugm-3,0.26164,R,ugm-3,65.19287,R,ugm-3
05-01-2018,02:00,0.30569,R,ugm-3,0.97028,R,ugm-3,1.43899,R,ugm-3,59.22240,R,ugm-3
05-01-2018,03:00,0.36028,R,ugm-3,0.57588,R,ugm-3,1.12830,R,ugm-3,54.03358,R,ugm-3
05-01-2018,04:00,0.42578,R,ugm-3,6.21507,R,ugm-3,6.86793,R,ugm-3,38.41723,R,ugm-3
05-01-2018,05:00,0.45854,R,ugm-3,6.06674,R,ugm-3,6.76981,R,ugm-3,47.24820,R,ugm-3
05-01-2018,06:00,0.49129,R,ugm-3,6.21274,R,ugm-3,6.96604,R,ugm-3,50.69078,R,ugm-3
05-01-2018,07:00,0.75331,R,ugm-3,8.11664,R,ugm-3,9.27170,R,ugm-3,56.17896,R,ugm-3
05-01-2018,08:00,1.31010,R,ugm-3,10.94215,R,ugm-3,12.95095,R,ugm-3,63.01423,R,ugm-3
05-01-2018,09:00,1.01533,R,ugm-3,11.05074,R,ugm-3,12.60755,R,ugm-3,62.71487,R,ugm-3
05-01-2018,10:00,0.58955,R,ugm-3,3.75642,R,ugm-3,4.66038,R,ugm-3,68.30283,R,ugm-3
05-01-2018,11:00,0.72056,R,ugm-3,2.72158,R,ugm-3,3.82642,R,ugm-3,67.90369,R,ugm-3
05-01-2018,12:00,0.72056,R,ugm-3,3.80083,R,ugm-3,4.90566,R,ugm-3,68.50240,R,ugm-3
05-01-2018,13:00,0.88432,R,ugm-3,4.38369,R,ugm-3,5.73962,R,ugm-3,66.80606,R,ugm-3
05-01-2018,14:00,0.94982,R,ugm-3,5.26438,R,ugm-3,6.72076,R,ugm-3,63.31358,R,ugm-3
05-01-2018,15:00,0.85157,R,ugm-3,4.18863,R,ugm-3,5.49434,R,ugm-3,61.41767,R,ugm-3
05-01-2018,16:00,0.81881,R,ugm-3,5.90677,R,ugm-3,7.16227,R,ugm-3,60.56950,R,ugm-3
05-01-2018,17:00,4.48709,R,ugm-3,21.22932,R,ugm-3,28.10944,R,ugm-3,39.86411,R,ugm-3
05-01-2018,18:00,30.85286,R,ugm-3,53.79861,R,ugm-3,101.10568,R,ugm-3,3.94151,R,ugm-3
05-01-2018,19:00,24.72814,R,ugm-3,45.13688,R,ugm-3,83.05285,R,ugm-3,7.43398,R,ugm-3
05-01-2018,20:00,38.45145,R,ugm-3,47.54384,R,ugm-3,106.50190,R,ugm-3,4.88947,R,ugm-3
05-01-2018,21:00,63.40886,R,ugm-3,43.41975,R,ugm-3,140.64531,R,ugm-3,5.58796,R,ugm-3
05-01-2018,22:00,33.83334,R,ugm-3,33.57955,R,ugm-3,85.45662,R,ugm-3,6.38624,R,ugm-3
05-01-2018,23:00,37.10859,R,ugm-3,29.24436,R,ugm-3,86.14341,R,ugm-3,6.23656,R,ugm-3
05-01-2018,24:00,37.20685,R,ugm-3,24.43332,R,ugm-3,81.48303,R,ugm-3,6.83527,R,ugm-3
06-01-2018,01:00,44.30605,R,ugm-3,21.48353,R,ugm-3,89.41853,R,ugm-3,4.85620,R,ugm-3
06-01-2018,02:00,19.98802,R,ugm-3,20.51394,R,ugm-3,51.16181,R,ugm-3,4.14108,R,ugm-3
06-01-2018,03:00,12.39957,R,ugm-3,18.27806,R,ugm-3,37.29047,R,ugm-3,3.94151,R,ugm-3
06-01-2018,04:00,16.07352,R,ugm-3,15.93654,R,ugm-3,40.58226,R,ugm-3,3.44258,R,ugm-3
06-01-2018,05:00,25.22558,R,ugm-3,14.48112,R,ugm-3,53.15981,R,ugm-3,3.39269,R,ugm-3
06-01-2018,06:00,14.69579,R,ugm-3,15.05203,R,ugm-3,37.58526,R,ugm-3,3.54237,R,ugm-3
06-01-2018,07:00,20.20671,R,ugm-3,16.23176,R,ugm-3,47.21495,R,ugm-3,3.39269,R,ugm-3
06-01-2018,08:00,19.51784,R,ugm-3,23.96983,R,ugm-3,53.89677,R,ugm-3,4.73979,R,ugm-3
06-01-2018,09:00,25.75043,R,ugm-3,30.77397,R,ugm-3,70.25741,R,ugm-3,4.93936,R,ugm-3
06-01-2018,10:00,10.79222,R,ugm-3,35.23630,R,ugm-3,51.78414,R,ugm-3,7.53377,R,ugm-3
06-01-2018,11:00,4.26440,R,ugm-3,25.78958,R,ugm-3,32.32824,R,ugm-3,20.30625,R,ugm-3
06-01-2018,12:00,2.91948,R,ugm-3,15.81466,R,ugm-3,20.29113,R,ugm-3,29.88561,R,ugm-3
06-01-2018,13:00,2.16501,R,ugm-3,9.99489,R,ugm-3,13.31452,R,ugm-3,35.67314,R,ugm-3
06-01-2018,14:00,1.83697,R,ugm-3,9.61350,R,ugm-3,12.43016,R,ugm-3,39.86411,R,ugm-3
06-01-2018,15:00,1.18091,R,ugm-3,7.76985,R,ugm-3,9.58056,R,ugm-3,48.79487,R,ugm-3
06-01-2018,16:00,1.14811,R,ugm-3,7.72189,R,ugm-3,9.48230,R,ugm-3,50.54110,R,ugm-3
06-01-2018,17:00,0.91849,R,ugm-3,7.63179,R,ugm-3,9.04012,R,ugm-3,58.07487,R,ugm-3
06-01-2018,18:00,0.78728,R,ugm-3,7.09601,R,ugm-3,8.30315,R,ugm-3,58.62369,R,ugm-3
06-01-2018,19:00,0.75447,R,ugm-3,8.12893,R,ugm-3,9.28577,R,ugm-3,57.82541,R,ugm-3
06-01-2018,20:00,0.65606,R,ugm-3,8.67287,R,ugm-3,9.67882,R,ugm-3,55.43057,R,ugm-3
06-01-2018,21:00,0.62326,R,ugm-3,8.52664,R,ugm-3,9.48230,R,ugm-3,54.98154,R,ugm-3
06-01-2018,22:00,0.65606,R,ugm-3,9.11505,R,ugm-3,10.12100,R,ugm-3,53.83401,R,ugm-3
06-01-2018,23:00,0.59046,R,ugm-3,9.16652,R,ugm-3,10.07187,R,ugm-3,53.68433,R,ugm-3
06-01-2018,24:00,0.59046,R,ugm-3,7.00475,R,ugm-3,7.91010,R,ugm-3,54.28304,R,ugm-3
07-01-2018,01:00,0.52566,R,ugm-3,6.93567,R,ugm-3,7.74167,R,ugm-3,55.34741,R,ugm-3
07-01-2018,02:00,0.61327,R,ugm-3,6.27648,R,ugm-3,7.21681,R,ugm-3,56.17896,R,ugm-3
07-01-2018,03:00,0.45995,R,ugm-3,6.28193,R,ugm-3,6.98718,R,ugm-3,54.28304,R,ugm-3
07-01-2018,04:00,0.39424,R,ugm-3,4.85731,R,ugm-3,5.46181,R,ugm-3,56.22885,R,ugm-3
07-01-2018,05:00,0.62422,R,ugm-3,4.40628,R,ugm-3,5.36340,R,ugm-3,57.57595,R,ugm-3
07-01-2018,06:00,0.59137,R,ugm-3,3.86619,R,ugm-3,4.77293,R,ugm-3,60.51960,R,ugm-3
07-01-2018,07:00,0.68993,R,ugm-3,4.69917,R,ugm-3,5.75704,R,ugm-3,58.72347,R,ugm-3
07-01-2018,08:00,0.72278,R,ugm-3,4.64880,R,ugm-3,5.75704,R,ugm-3,56.52820,R,ugm-3
07-01-2018,09:00,0.88705,R,ugm-3,5.87309,R,ugm-3,7.23321,R,ugm-3,53.18541,R,ugm-3
07-01-2018,10:00,1.34700,R,ugm-3,6.29956,R,ugm-3,8.36494,R,ugm-3,53.23530,R,ugm-3
07-01-2018,11:00,1.87266,R,ugm-3,6.87132,R,ugm-3,9.74269,R,ugm-3,53.48476,R,ugm-3
07-01-2018,12:00,1.90551,R,ugm-3,7.46062,R,ugm-3,10.38236,R,ugm-3,53.48476,R,ugm-3
07-01-2018,13:00,1.74125,R,ugm-3,6.38394,R,ugm-3,9.05381,R,ugm-3,58.42412,R,ugm-3
07-01-2018,14:00,1.34700,R,ugm-3,5.41387,R,ugm-3,7.47924,R,ugm-3,61.36778,R,ugm-3
07-01-2018,15:00,1.34700,R,ugm-3,6.84082,R,ugm-3,8.90620,R,ugm-3,58.17466,R,ugm-3
07-01-2018,16:00,1.05132,R,ugm-3,8.32752,R,ugm-3,9.93951,R,ugm-3,56.07917,R,ugm-3
07-01-2018,17:00,0.85420,R,ugm-3,11.09004,R,ugm-3,12.39979,R,ugm-3,52.23745,R,ugm-3
07-01-2018,18:00,0.68993,R,ugm-3,11.93238,R,ugm-3,12.99026,R,ugm-3,52.93594,R,ugm-3
07-01-2018,19:00,1.14988,R,ugm-3,13.49058,R,ugm-3,15.25371,R,ugm-3,53.28519,R,ugm-3
07-01-2018,20:00,1.14988,R,ugm-3,12.50647,R,ugm-3,14.26960,R,ugm-3,56.17896,R,ugm-3
07-01-2018,21:00,1.05132,R,ugm-3,13.93694,R,ugm-3,15.54894,R,ugm-3,53.73422,R,ugm-3
07-01-2018,22:00,0.59137,R,ugm-3,11.49304,R,ugm-3,12.39979,R,ugm-3,54.33293,R,ugm-3
07-01-2018,23:00,0.85420,R,ugm-3,9.26943,R,ugm-3,10.57918,R,ugm-3,55.82971,R,ugm-3
07-01-2018,24:00,0.52566,R,ugm-3,7.65735,R,ugm-3,8.46335,R,ugm-3,56.22885,R,ugm-3
08-01-2018,01:00,0.43872,R,ugm-3,6.35791,R,ugm-3,7.03061,R,ugm-3,57.54268,R,ugm-3
08-01-2018,02:00,0.43872,R,ugm-3,5.89796,R,ugm-3,6.57066,R,ugm-3,59.02283,R,ugm-3
08-01-2018,03:00,0.55937,R,ugm-3,5.69654,R,ugm-3,6.55423,R,ugm-3,58.87315,R,ugm-3
08-01-2018,04:00,0.55937,R,ugm-3,5.15446,R,ugm-3,6.01215,R,ugm-3,58.87315,R,ugm-3
08-01-2018,05:00,0.59228,R,ugm-3,8.55361,R,ugm-3,9.46175,R,ugm-3,55.58025,R,ugm-3
08-01-2018,06:00,0.75680,R,ugm-3,12.83510,R,ugm-3,13.99551,R,ugm-3,50.94024,R,ugm-3
08-01-2018,07:00,0.98713,R,ugm-3,15.34017,R,ugm-3,16.85374,R,ugm-3,47.54755,R,ugm-3
08-01-2018,08:00,1.25036,R,ugm-3,18.63255,R,ugm-3,20.54974,R,ugm-3,44.85336,R,ugm-3
08-01-2018,09:00,1.54650,R,ugm-3,21.18455,R,ugm-3,23.55582,R,ugm-3,41.26110,R,ugm-3
08-01-2018,10:00,2.56653,R,ugm-3,27.11107,R,ugm-3,31.04637,R,ugm-3,35.27400,R,ugm-3
08-01-2018,11:00,2.53363,R,ugm-3,20.60729,R,ugm-3,24.49214,R,ugm-3,38.31744,R,ugm-3
08-01-2018,12:00,2.99429,R,ugm-3,21.03440,R,ugm-3,25.62558,R,ugm-3,36.62110,R,ugm-3
08-01-2018,13:00,4.01432,R,ugm-3,27.84796,R,ugm-3,34.00317,R,ugm-3,29.23701,R,ugm-3
08-01-2018,14:00,4.73822,R,ugm-3,30.23688,R,ugm-3,37.50205,R,ugm-3,26.64260,R,ugm-3
08-01-2018,15:00,5.46211,R,ugm-3,36.56820,R,ugm-3,44.94332,R,ugm-3,19.15872,R,ugm-3
08-01-2018,16:00,6.51505,R,ugm-3,40.62091,R,ugm-3,50.61051,R,ugm-3,14.56861,R,ugm-3
08-01-2018,17:00,5.16597,R,ugm-3,41.30963,R,ugm-3,49.23067,R,ugm-3,10.87657,R,ugm-3
08-01-2018,18:00,4.44208,R,ugm-3,37.78727,R,ugm-3,44.59836,R,ugm-3,10.07829,R,ugm-3
08-01-2018,19:00,5.88987,R,ugm-3,31.96992,R,ugm-3,41.00092,R,ugm-3,10.47743,R,ugm-3
08-01-2018,20:00,2.04007,R,ugm-3,19.34360,R,ugm-3,22.47166,R,ugm-3,20.20646,R,ugm-3
08-01-2018,21:00,1.90845,R,ugm-3,19.49613,R,ugm-3,22.42238,R,ugm-3,19.00904,R,ugm-3
08-01-2018,22:00,2.43492,R,ugm-3,20.31513,R,ugm-3,24.04862,R,ugm-3,17.16302,R,ugm-3
08-01-2018,23:00,1.90845,R,ugm-3,19.34829,R,ugm-3,22.27454,R,ugm-3,16.96345,R,ugm-3
08-01-2018,24:00,2.40201,R,ugm-3,19.82350,R,ugm-3,23.50654,R,ugm-3,15.61635,R,ugm-3
09-01-2018,01:00,2.24093,R,ugm-3,19.72762,R,ugm-3,23.16367,R,ugm-3,14.70166,R,ugm-3
09-01-2018,02:00,1.14244,R,ugm-3,21.34615,R,ugm-3,23.09786,R,ugm-3,13.12173,R,ugm-3
09-01-2018,03:00,1.05456,R,ugm-3,20.54316,R,ugm-3,22.16013,R,ugm-3,13.27141,R,ugm-3
09-01-2018,04:00,0.95569,R,ugm-3,16.84511,R,ugm-3,18.31048,R,ugm-3,16.36474,R,ugm-3
09-01-2018,05:00,0.98865,R,ugm-3,14.42557,R,ugm-3,15.94147,R,ugm-3,17.66195,R,ugm-3
09-01-2018,06:00,1.21933,R,ugm-3,13.57831,R,ugm-3,15.44793,R,ugm-3,18.70969,R,ugm-3
09-01-2018,07:00,1.84547,R,ugm-3,15.67822,R,ugm-3,18.50790,R,ugm-3,16.86367,R,ugm-3
09-01-2018,08:00,3.98754,R,ugm-3,20.93207,R,ugm-3,27.04621,R,ugm-3,12.17377,R,ugm-3
09-01-2018,09:00,6.95348,R,ugm-3,26.74879,R,ugm-3,37.41064,R,ugm-3,6.98495,R,ugm-3
09-01-2018,10:00,13.80809,R,ugm-3,29.26809,R,ugm-3,50.44020,R,ugm-3,5.93721,R,ugm-3
09-01-2018,11:00,9.22736,R,ugm-3,25.77928,R,ugm-3,39.92771,R,ugm-3,6.68560,R,ugm-3
09-01-2018,12:00,9.42509,R,ugm-3,24.43966,R,ugm-3,38.89127,R,ugm-3,8.38194,R,ugm-3
09-01-2018,13:00,5.99779,R,ugm-3,21.10713,R,ugm-3,30.30360,R,ugm-3,9.03054,R,ugm-3
09-01-2018,14:00,7.54667,R,ugm-3,20.85445,R,ugm-3,32.42584,R,ugm-3,8.28216,R,ugm-3
09-01-2018,15:00,7.77735,R,ugm-3,21.83331,R,ugm-3,33.75841,R,ugm-3,8.13248,R,ugm-3
09-01-2018,16:00,8.30463,R,ugm-3,24.38093,R,ugm-3,37.11451,R,ugm-3,6.08689,R,ugm-3
09-01-2018,17:00,7.94212,R,ugm-3,27.89802,R,ugm-3,40.07577,R,ugm-3,4.49033,R,ugm-3
09-01-2018,18:00,6.39325,R,ugm-3,29.03908,R,ugm-3,38.84192,R,ugm-3,4.19097,R,ugm-3
09-01-2018,19:00,2.53753,R,ugm-3,26.26472,R,ugm-3,30.15554,R,ugm-3,8.08259,R,ugm-3
09-01-2018,20:00,1.28524,R,ugm-3,18.90624,R,ugm-3,20.87691,R,ugm-3,16.36474,R,ugm-3
09-01-2018,21:00,1.05456,R,ugm-3,14.81805,R,ugm-3,16.43502,R,ugm-3,22.15227,R,ugm-3
09-01-2018,22:00,0.69205,R,ugm-3,12.56068,R,ugm-3,13.62182,R,ugm-3,25.39528,R,ugm-3
09-01-2018,23:00,0.59319,R,ugm-3,8.96134,R,ugm-3,9.87088,R,ugm-3,28.88776,R,ugm-3
09-01-2018,24:00,0.69205,R,ugm-3,9.10588,R,ugm-3,10.16701,R,ugm-3,25.74453,R,ugm-3
10-01-2018,01:00,0.70412,R,ugm-3,8.41071,R,ugm-3,9.49034,R,ugm-3,23.94840,R,ugm-3
10-01-2018,02:00,0.79213,R,ugm-3,8.40757,R,ugm-3,9.62215,R,ugm-3,18.70969,R,ugm-3
10-01-2018,03:00,1.32022,R,ugm-3,12.35949,R,ugm-3,14.38380,R,ugm-3,12.22366,R,ugm-3
10-01-2018,04:00,1.25421,R,ugm-3,9.64326,R,ugm-3,11.56635,R,ugm-3,7.23441,R,ugm-3
10-01-2018,05:00,0.75913,R,ugm-3,6.15149,R,ugm-3,7.31547,R,ugm-3,11.77463,R,ugm-3
10-01-2018,06:00,2.17836,R,ugm-3,10.25283,R,ugm-3,13.59293,R,ugm-3,11.72474,R,ugm-3
10-01-2018,07:00,12.21202,R,ugm-3,17.85251,R,ugm-3,36.57735,R,ugm-3,3.59226,R,ugm-3
10-01-2018,08:00,31.48721,R,ugm-3,23.88640,R,ugm-3,72.16612,R,ugm-3,2.89377,R,ugm-3
10-01-2018,09:00,96.21092,R,ugm-3,33.88252,R,ugm-3,181.40388,R,ugm-3,3.69205,R,ugm-3
10-01-2018,10:00,146.44524,R,ugm-3,48.79531,R,ugm-3,273.34154,R,ugm-3,4.59011,R,ugm-3
10-01-2018,11:00,132.45092,R,ugm-3,51.76657,R,ugm-3,254.85515,R,ugm-3,5.53807,R,ugm-3
10-01-2018,12:00,34.65574,R,ugm-3,37.11903,R,ugm-3,90.25708,R,ugm-3,14.86797,R,ugm-3
10-01-2018,13:00,12.70710,R,ugm-3,19.76255,R,ugm-3,39.24651,R,ugm-3,25.24561,R,ugm-3
10-01-2018,14:00,1.15519,R,ugm-3,4.95106,R,ugm-3,6.72232,R,ugm-3,54.08347,R,ugm-3
10-01-2018,15:00,1.71628,R,ugm-3,7.89675,R,ugm-3,10.52835,R,ugm-3,60.02068,R,ugm-3
10-01-2018,16:00,4.88481,R,ugm-3,22.36509,R,ugm-3,29.85503,R,ugm-3,46.15056,R,ugm-3
10-01-2018,17:00,29.14382,R,ugm-3,43.04964,R,ugm-3,87.73621,R,ugm-3,10.62710,R,ugm-3
10-01-2018,18:00,98.45529,R,ugm-3,58.12136,R,ugm-3,209.08403,R,ugm-3,4.44043,R,ugm-3
10-01-2018,19:00,89.04874,R,ugm-3,46.19896,R,ugm-3,182.73846,R,ugm-3,5.08904,R,ugm-3
10-01-2018,20:00,54.16196,R,ugm-3,31.72660,R,ugm-3,114.77379,R,ugm-3,4.19097,R,ugm-3
10-01-2018,21:00,47.09879,R,ugm-3,31.97887,R,ugm-3,104.19601,R,ugm-3,8.13248,R,ugm-3
10-01-2018,22:00,32.70841,R,ugm-3,26.26480,R,ugm-3,76.41700,R,ugm-3,5.38839,R,ugm-3
10-01-2018,23:00,23.03781,R,ugm-3,28.19192,R,ugm-3,63.51607,R,ugm-3,5.43828,R,ugm-3
10-01-2018,24:00,10.52874,R,ugm-3,22.65780,R,ugm-3,38.80165,R,ugm-3,5.38839,R,ugm-3
11-01-2018,01:00,0.61705,R,ugm-3,12.78279,R,ugm-3,13.72891,R,ugm-3,10.84330,R,ugm-3
11-01-2018,02:00,1.10187,R,ugm-3,15.93367,R,ugm-3,17.62317,R,ugm-3,7.18452,R,ugm-3
11-01-2018,03:00,1.15696,R,ugm-3,13.57204,R,ugm-3,15.34602,R,ugm-3,7.28431,R,ugm-3
11-01-2018,04:00,0.82640,R,ugm-3,11.35621,R,ugm-3,12.62334,R,ugm-3,8.08259,R,ugm-3
11-01-2018,05:00,0.89251,R,ugm-3,12.49242,R,ugm-3,13.86092,R,ugm-3,11.37549,R,ugm-3
11-01-2018,06:00,3.23949,R,ugm-3,18.10138,R,ugm-3,23.06854,R,ugm-3,7.63355,R,ugm-3
11-01-2018,07:00,31.33714,R,ugm-3,26.35385,R,ugm-3,74.40345,R,ugm-3,3.09334,R,ugm-3
11-01-2018,08:00,78.37590,R,ugm-3,33.63204,R,ugm-3,153.80674,R,ugm-3,3.84172,R,ugm-3
11-01-2018,09:00,158.76822,R,ugm-3,49.61831,R,ugm-3,293.05952,R,ugm-3,4.88947,R,ugm-3
11-01-2018,10:00,118.07622,R,ugm-3,45.57841,R,ugm-3,226.62609,R,ugm-3,9.32990,R,ugm-3
11-01-2018,11:00,4.99146,R,ugm-3,16.55364,R,ugm-3,24.20711,R,ugm-3,24.54711,R,ugm-3
11-01-2018,12:00,7.90040,R,ugm-3,23.72662,R,ugm-3,35.84039,R,ugm-3,30.28475,R,ugm-3
11-01-2018,13:00,1.95031,R,ugm-3,8.29632,R,ugm-3,11.28675,R,ugm-3,49.04433,R,ugm-3
11-01-2018,14:00,1.58669,R,ugm-3,7.51727,R,ugm-3,9.95016,R,ugm-3,51.04003,R,ugm-3
11-01-2018,15:00,2.14864,R,ugm-3,12.39801,R,ugm-3,15.69254,R,ugm-3,47.89680,R,ugm-3
11-01-2018,16:00,1.45447,R,ugm-3,13.06637,R,ugm-3,15.29652,R,ugm-3,46.00089,R,ugm-3
11-01-2018,17:00,5.45425,R,ugm-3,36.28891,R,ugm-3,44.65197,R,ugm-3,25.19571,R,ugm-3
11-01-2018,18:00,23.73425,R,ugm-3,53.25847,R,ugm-3,89.65047,R,ugm-3,9.37979,R,ugm-3
11-01-2018,19:00,58.57533,R,ugm-3,50.77512,R,ugm-3,140.58936,R,ugm-3,5.73764,R,ugm-3
11-01-2018,20:00,77.38422,R,ugm-3,43.86518,R,ugm-3,162.51932,R,ugm-3,4.68990,R,ugm-3
11-01-2018,21:00,45.22068,R,ugm-3,38.72829,R,ugm-3,108.06570,R,ugm-3,6.13678,R,ugm-3
11-01-2018,22:00,22.01533,R,ugm-3,31.38997,R,ugm-3,65.14634,R,ugm-3,5.58796,R,ugm-3
11-01-2018,23:00,8.75985,R,ugm-3,25.13148,R,ugm-3,38.56307,R,ugm-3,5.53807,R,ugm-3
11-01-2018,24:00,16.72636,R,ugm-3,23.80706,R,ugm-3,49.45379,R,ugm-3,4.78968,R,ugm-3
12-01-2018,01:00,9.49057,R,ugm-3,19.62359,R,ugm-3,34.17559,R,ugm-3,4.52359,R,ugm-3
12-01-2018,02:00,0.61799,R,ugm-3,12.40537,R,ugm-3,13.35294,R,ugm-3,11.62495,R,ugm-3
12-01-2018,03:00,1.42359,R,ugm-3,14.97110,R,ugm-3,17.15390,R,ugm-3,7.93291,R,ugm-3
12-01-2018,04:00,2.25125,R,ugm-3,15.43725,R,ugm-3,18.88912,R,ugm-3,7.43398,R,ugm-3
12-01-2018,05:00,1.29116,R,ugm-3,12.24906,R,ugm-3,14.22881,R,ugm-3,8.18237,R,ugm-3
12-01-2018,06:00,2.21815,R,ugm-3,12.56293,R,ugm-3,15.96403,R,ugm-3,13.47098,R,ugm-3
12-01-2018,07:00,8.57462,R,ugm-3,19.57374,R,ugm-3,32.72131,R,ugm-3,3.14323,R,ugm-3
12-01-2018,08:00,5.69434,R,ugm-3,15.06611,R,ugm-3,23.79732,R,ugm-3,5.23871,R,ugm-3
12-01-2018,09:00,3.87348,R,ugm-3,14.43720,R,ugm-3,20.37645,R,ugm-3,5.18882,R,ugm-3
12-01-2018,10:00,4.13833,R,ugm-3,12.94039,R,ugm-3,19.28574,R,ugm-3,5.98710,R,ugm-3
12-01-2018,11:00,12.21635,R,ugm-3,16.41914,R,ugm-3,35.15062,R,ugm-3,5.03914,R,ugm-3
12-01-2018,12:00,20.89029,R,ugm-3,20.91770,R,ugm-3,52.94903,R,ugm-3,4.39054,R,ugm-3
12-01-2018,13:00,18.17555,R,ugm-3,24.88194,R,ugm-3,52.75072,R,ugm-3,6.73549,R,ugm-3
12-01-2018,14:00,15.89119,R,ugm-3,22.73271,R,ugm-3,47.09886,R,ugm-3,6.83527,R,ugm-3
12-01-2018,15:00,17.51341,R,ugm-3,23.41830,R,ugm-3,50.27183,R,ugm-3,6.43613,R,ugm-3
12-01-2018,16:00,31.12025,R,ugm-3,26.50084,R,ugm-3,74.21788,R,ugm-3,7.58366,R,ugm-3
12-01-2018,17:00,35.65585,R,ugm-3,31.29626,R,ugm-3,85.96781,R,ugm-3,3.89162,R,ugm-3
12-01-2018,18:00,77.70129,R,ugm-3,39.26058,R,ugm-3,158.40089,R,ugm-3,6.63570,R,ugm-3
12-01-2018,19:00,109.11950,R,ugm-3,40.56525,R,ugm-3,207.87948,R,ugm-3,8.98065,R,ugm-3
12-01-2018,20:00,104.15350,R,ugm-3,38.75991,R,ugm-3,198.45971,R,ugm-3,10.72689,R,ugm-3
12-01-2018,21:00,17.41409,R,ugm-3,30.61063,R,ugm-3,57.31187,R,ugm-3,6.28646,R,ugm-3